Simultaneous Nadir Overpasses (SNOs) Predictions

Prediction of SNOs between METOP-B and NOAA-19 Satellite Orbit:

Table of predicted SNOs for the next 14.0 days since TLE Epoch: 7/5/2014
Index Date (METOP-B) Time (METOP-B) Lat,Lon (METOP-B) SZA (METOP-B ) Date (NOAA-19) Time (NOAA-19) Lat,Lon (NOAA-19) SZA (NOAA-19 ) Distance(km) Time Diff (sec)
1 07/14/2014 14:21:16 -74.10, 139.74 127.51 07/14/2014 14:20:02 -74.12, 139.78 127.48 2.70 74
2 07/14/2014 15:11:56 74.09, -52.94 52.49 07/14/2014 15:11:01 74.09, -52.90 52.51 1.45 55
3 07/14/2014 16:02:38 -74.07, 114.35 127.52 07/14/2014 16:02:05 -74.09, 114.34 127.49 2.00 33
4 07/14/2014 16:53:18 74.06, -78.34 52.48 07/14/2014 16:53:04 74.07, -78.34 52.49 0.19 14
5 07/14/2014 17:44:00 -74.05, 88.95 127.53 07/14/2014 17:44:08 -74.06, 88.90 127.51 2.23 8
6
